CAPE
0 0 0 176 99 0 48 311 369 143 146 218 110 57 35 53 6 11 4 0 4 11 16 46 70 61 84 67 68 43 4 7 8 0 0 1 4 10 11 15 0 0 1 37
0 0 0 0 7 75 187 247 147 59 67 115 81 62 53 36 43 18 11 5 7 18 66 47 35 8 3 7 4 2 5 3 1 0 1 9 6 2 7 13 13 12 6 6
0 1 6 78 135 220 207 343 132 172 80 87 84 105 152 190 106 61 63 80 17 61 159 25 10 0 0 0 0 5 10 4 0 1 2 1 0 0 2 7 11 2 0 4
9 15 66 122 21 16 15 19 77 41 94 169 77 240 147 157 195 254 228 186 112 218 12 12 0 13 17 21 14 9 0 0 0 1 2 6 0 0 20 26 23 36 27 59
9 3 9 28 49 37 98 58 45 31 76 142 148 271 191 109 127 308 341 275 296 110 8 14 17 34 32 23 9 0 0 0 0 0 4 2 0 41 51 50 67 64 78 88
17 32 40 40 22 64 45 23 13 29 23 188 113 170 180 177 175 185 290 293 310 96 18 23 33 48 28 14 0 0 0 1 3 0 5 8 14 53 53 71 6 67 92 13
59 41 10 4 8 5 18 203 130 132 87 83 13 89 163 81 189 206 253 227 100 22 31 44 51 49 16 4 0 0 0 2 0 1 11 18 44 60 54 60 6 25 121 153
75 50 31 20 5 20 54 0 14 33 29 55 18 189 153 192 294 329 293 129 21 37 43 59 66 23 15 2 0 0 0 0 0 10 21 41 48 38 41 39 19 30 133 151
73 68 44 13 12 3 0 0 0 40 8 100 147 121 279 210 144 181 76 26 37 52 78 84 31 16 16 0 0 0 0 0 16 31 30 50 31 40 62 60 64 69 79 71
18 12 3 1 0 0 0 0 0 17 99 89 100 101 227 305 345 199 151 55 59 82 102 58 33 19 1 0 0 1 0 0 24 45 57 34 0 60 44 46 65 86 77 61
0 0 0 0 0 0 0 0 0 10 25 92 87 198 22 175 273 75 275 114 113 114 103 53 20 0 1 0 0 0 0 0 9 28 60 71 3 20 82 74 15 47 76 41
0 4 0 0 0 0 0 0 0 10 59 29 55 155 0 61 273 397 209 224 152 125 65 38 29 7 0 0 0 1 0 0 0 42 34 14 0 0 50 73 28 30 60 23
0 0 0 0 0 0 1 1 2 26 46 101 0 24 0 5 20 51 119 172 129 83 45 47 3 6 0 0 0 15 0 27 26 44 0 0 0 6 7 0 43 40 35 39
0 0 0 1 4 5 7 10 10 16 8 0 4 0 0 4 7 7 30 19 16 27 21 5 7 0 0 0 2 0 10 26 32 42 0 6 59 14 7 47 37 46 38 51
0 0 0 0 1 2 4 10 9 7 0 0 33 6 0 0 0 0 0 3 1 1 1 0 0 0 0 0 0 0 39 23 28 34 18 33 72 90 67 96 36 51 55 36
0 0 0 0 0 3 10 4 0 0 0 0 0 0 0 0 0 0 0 0 0 1 0 0 0 0 0 0 0 0 28 27 21 38 53 27 100 88 86 76 65 40 28 15
45 20 11 15 4 13 9 1 1 2 0 0 0 0 0 0 0 0 0 0 0 0 0 0 0 4 0 0 0 0 13 15 23 46 45 79 50 78 69 57 51 38 30 23
231 258 230 57 11 17 20 1 0 0 0 0 0 0 0 0 0 0 0 0 0 0 0 0 0 0 0 0 0 0 4 5 26 71 80 92 82 20 57 73 65 60 48 44
63 107 11 84 5 0 0 0 0 0 0 0 0 0 0 0 0 0 0 0 0 0 0 0 0 0 0 0 0 0 3 14 48 76 104 97 75 59 6 5 69 100 78 77
14 108 158 55 0 0 0 0 0 0 0 0 0 0 0 0 0 0 0 0 0 0 0 0 0 0 0 0 0 2 5 15 58 87 95 85 86 72 16 0 17 72 92 68
23 116 141 88 31 0 0 0 0 0 0 0 0 0 0 0 0 0 0 0 0 0 0 0 0 0 0 0 0 19 16 35 64 83 88 82 82 66 50 11 0 0 25 64
2 14 19 2 2 2 3 0 0 3 7 0 0 0 0 0 0 0 0 0 0 0 0 0 0 0 0 0 0 17 15 44 61 89 87 90 108 88 66 47 12 0 0 0
21 15 11 7 21 58 12 10 9 10 9 0 0 1 5 0 0 0 0 0 0 0 0 0 0 0 8 0 0 14 8 21 63 79 100 52 94 65 98 68 44 0 0 0
37 14 44 29 62 41 45 24 21 17 12 23 8 16 9 16 1 0 0 0 0 0 0 0 0 0 8 17 1 14 11 17 61 111 132 93 70 89 62 83 43 1 0 0
6 35 41 57 53 24 16 6 18 17 18 28 56 16 14 9 18 13 7 0 0 0 0 0 0 0 10 12 5 13 11 30 75 118 108 83 55 90 121 84 42 36 1 0
2 33 75 41 24 1 11 1 2 8 14 9 11 19 19 3 3 18 23 1 0 2 0 0 0 0 9 12 11 17 25 36 79 97 46 72 88 100 99 63 56 8 0 0
CIN
-0 -0 -0 -54 -90 -0 -8 -184 -194 -139 -197 -139 -161 -96 -56 -58 -0 -66 -9 -0 -1 -0 -37 -17 -11 -5 -8 -0 -3 -2 -6 -1 -5 -0 -0 -0 -0 -0 -0 -0 -0 -0 -6 -0
-0 -0 -0 -0 -31 -47 -197 -207 -273 -225 -255 -139 -117 -101 -57 -94 -57 -64 -63 -17 -10 -4 -6 -1 -5 -17 -49 -17 -4 -8 -10 -2 -0 -0 -0 -0 -0 -0 -2 -0 -0 -1 -10 -17
-0 -2 -141 -261 -253 -182 -184 -103 -264 -210 -180 -117 -112 -91 -47 -29 -16 -18 -10 -2 -22 -12 -2 -5 -23 -0 -0 -0 -0 -7 -4 -1 -0 -0 -0 -0 -0 -0 -0 -0 -0 -0 -0 -16
-25 -7 -195 -180 -28 -26 -25 -14 -272 -298 -161 -76 -107 -11 -49 -22 -1 -0 -4 -0 -1 -0 -29 -28 -0 -23 -11 -6 -8 -2 -0 -0 -0 -0 -0 -0 -0 -0 -0 -0 -0 -0 -0 -0
-59 -27 -11 -11 -8 -22 -231 -279 -212 -197 -125 -81 -60 -7 -40 -35 -7 -0 -22 -5 -4 -15 -45 -38 -16 -13 -17 -11 -5 -0 -0 -0 -0 -0 -0 -0 -0 -0 -0 -0 -0 -0 -0 -0
-7 -20 -16 -13 -115 -235 -299 -156 -114 -60 -51 -11 -53 -28 -17 -20 -10 -14 -23 -25 -12 -32 -50 -37 -21 -17 -10 -11 -0 -0 -0 -2 -11 -0 -0 -0 -0 -0 -0 -0 -0 -0 -0 -1
-14 -12 -18 -111 -166 -23 -7 -79 -21 -7 -14 -13 -66 -23 -32 -37 -18 -12 -3 -18 -39 -56 -39 -24 -10 -5 -12 -4 -0 -0 -0 -3 -0 -0 -4 -0 -0 -0 -0 -0 -0 -0 -0 -0
-17 -4 -17 -13 -6 -36 -82 -0 -0 -0 -2 -8 -60 -2 -3 -29 -33 -29 -30 -56 -67 -52 -27 -9 -7 -12 -4 -2 -0 -0 -0 -0 -0 -6 -1 -0 -0 -0 -0 -0 -4 -8 -0 -0
-9 -6 -5 -11 -28 -28 -5 -1 -0 -66 -127 -26 -26 -34 -20 -36 -62 -49 -70 -40 -39 -43 -11 -8 -12 -5 -3 -0 -0 -0 -0 -0 -0 -0 -0 -0 -3 -0 -0 -0 -0 -2 -1 -0
-11 -32 -3 -15 -0 -0 -0 -0 -0 -29 -1 -0 -30 -25 -0 -6 -8 -40 -49 -3 -13 -16 -8 -14 -5 -2 -3 -0 -0 -1 -0 -0 -0 -0 -0 -0 -0 -0 -0 -0 -0 -0 -0 -0
-0 -0 -0 -0 -0 -0 -0 -0 -0 -14 -48 -0 -0 -0 -54 -19 -4 -1 -2 -6 -7 -9 -5 -2 -6 -0 -2 -0 -0 -0 -0 -0 -3 -3 -0 -0 -0 -0 -0 -0 -1 -0 -0 -0
-0 -41 -0 -0 -0 -0 -0 -0 -1 -1 -17 -61 -25 -0 -0 -48 -20 -32 -11 -8 -7 -6 -0 -2 -0 -7 -0 -0 -0 -0 -0 -0 -0 -1 -6 -3 -0 -0 -0 -0 -1 -0 -0 -0
-0 -0 -0 -0 -0 -0 -0 -1 -130 -129 -78 -29 -6 -15 -0 -9 -11 -33 -25 -10 -4 -1 -2 -0 -6 -4 -0 -0 -0 -0 -0 -0 -1 -0 -0 -0 -0 -0 -0 -0 -3 -1 -1 -0
-0 -0 -0 -0 -9 -18 -2 -1 -3 -33 -4 -0 -19 -0 -0 -16 -7 -6 -14 -22 -13 -3 -3 -16 -4 -0 -0 -0 -1 -0 -0 -0 -0 -0 -0 -0 -7 -5 -1 -3 -4 -5 -0 -0
-0 -0 -0 -0 -1 -1 -1 -3 -3 -4 -1 -11 -17 -0 -0 -0 -0 -0 -0 -7 -1 -1 -1 -0 -0 -0 -0 -0 -0 -0 -0 -0 -2 -2 -19 -10 -1 -0 -0 -0 -10 -1 -0 -0
-0 -0 -0 -0 -0 -1 -2 -7 -0 -0 -0 -0 -0 -0 -0 -0 -0 -0 -0 -0 -0 -1 -0 -0 -0 -0 -0 -0 -0 -0 -0 -2 -6 -2 -3 -24 -0 -1 -2 -0 -1 -6 -6 -5
-91 -40 -15 -8 -2 -15 -20 -2 -9 -47 -0 -0 -0 -0 -0 -0 -0 -0 -0 -0 -0 -0 -0 -0 -0 -0 -0 -0 -0 -0 -4 -9 -8 -9 -19 -5 -28 -9 -11 -8 -7 -14 -22 -22
-55 -38 -22 -3 -0 -7 -6 -13 -0 -0 -0 -0 -0 -0 -0 -0 -0 -0 -0 -0 -0 -0 -0 -0 -0 -0 -0 -0 -0 -0 -11 -14 -7 -3 -7 -5 -11 -7 -17 -10 -11 -16 -20 -24
-124 -47 -41 -10 -1 -2 -0 -0 -0 -0 -0 -0 -0 -0 -0 -0 -0 -0 -0 -0 -0 -0 -0 -0 -0 -0 -0 -0 -0 -0 -12 -12 -1 -3 -3 -9 -17 -22 -0 -3 -26 -9 -9 -10
-41 -38 -23 -17 -0 -0 -0 -0 -0 -0 -0 -0 -0 -0 -0 -0 -0 -0 -0 -0 -0 -0 -0 -0 -0 -0 -0 -0 -0 -2 -5 -23 -1 -5 -14 -18 -17 -20 -20 -0 -58 -27 -14 -14
-19 -5 -0 -2 -6 -0 -0 -0 -0 -0 -0 -0 -0 -0 -0 -0 -0 -0 -0 -0 -0 -0 -0 -0 -0 -0 -0 -0 -0 -0 -1 -1 -6 -15 -24 -24 -34 -60 -45 -12 -0 -0 -35 -18
-0 -5 -9 -0 -0 -0 -9 -0 -0 -4 -8 -0 -0 -0 -0 -0 -0 -0 -0 -0 -0 -0 -0 -0 -0 -0 -0 -0 -0 -0 -1 -3 -8 -16 -25 -30 -29 -54 -50 -68 -10 -0 -0 -0
-0 -9 -0 -4 -0 -16 -26 -1 -41 -13 -0 -0 -0 -0 -1 -0 -0 -0 -0 -0 -0 -0 -1 -0 -0 -0 -7 -0 -0 -0 -5 -12 -7 -13 -23 -86 -41 -101 -41 -62 -55 -0 -0 -0
-14 -53 -4 -5 -8 -20 -27 -41 -8 -3 -0 -4 -4 -0 -2 -6 -24 -0 -0 -0 -0 -0 -0 -0 -0 -0 -6 -2 -1 -2 -8 -20 -11 -5 -11 -33 -65 -42 -84 -35 -53 -11 -0 -0
-39 -33 -20 -19 -14 -2 -24 -74 -7 -2 -4 -8 -13 -4 -0 -4 -3 -6 -4 -0 -1 -0 -0 -0 -0 -0 -7 -4 -7 -6 -12 -14 -7 -6 -12 -24 -56 -50 -21 -26 -58 -60 -18 -0
-6 -13 -0 -3 -21 -0 -13 -0 -21 -35 -50 -50 -13 -10 -0 -0 -2 -4 -3 -0 -1 -1 -0 -0 -0 -0 -9 -6 -7 -6 -9 -7 -1 -8 -39 -15 -12 -11 -11 -16 -32 -60 -0 -0
Wind_Speed
nan nan nan 20 nan nan nan 29 29 29 30 39 41 nan nan nan nan nan nan nan nan nan nan nan nan nan nan nan nan nan nan nan nan nan nan nan nan nan nan nan nan nan nan nan
nan nan nan nan nan nan 32 36 29 nan nan 34 nan nan nan nan nan nan nan nan nan nan nan nan nan nan nan nan nan nan nan nan nan nan nan nan nan nan nan nan nan nan nan nan
nan nan nan nan 28 35 29 28 34 37 nan nan nan 40 37 38 36 nan nan nan nan nan 25 nan nan nan nan nan nan nan nan nan nan nan nan nan nan nan nan nan nan nan nan nan
nan nan nan 28 nan nan nan nan nan nan nan 42 nan 32 35 36 33 31 29 25 26 31 nan nan nan nan nan nan nan nan nan nan nan nan nan nan nan nan nan nan nan nan nan nan
nan nan nan nan nan nan nan nan nan nan nan 49 39 29 33 32 29 22 25 29 29 33 nan nan nan nan nan nan nan nan nan nan nan nan nan nan nan nan nan nan nan nan nan nan
nan nan nan nan nan nan nan nan nan nan nan 37 35 24 29 26 21 22 27 28 29 nan nan nan nan nan nan nan nan nan nan nan nan nan nan nan nan nan nan nan nan nan nan nan
nan nan nan nan nan nan nan 40 42 44 nan nan nan nan 17 nan 18 23 27 30 31 nan nan nan nan nan nan nan nan nan nan nan nan nan nan nan nan nan nan nan nan nan 15 11
nan nan nan nan nan nan nan nan nan nan nan nan nan 21 22 17 20 22 26 32 nan nan nan nan nan nan nan nan nan nan nan nan nan nan nan nan nan nan nan nan nan nan 15 9
nan nan nan nan nan nan nan nan nan nan nan 23 22 19 19 17 20 22 nan nan nan nan nan nan nan nan nan nan nan nan nan nan nan nan nan nan nan nan nan nan nan nan nan nan
nan nan nan nan nan nan nan nan nan nan nan nan 18 10 9 14 21 26 31 nan nan nan 41 nan nan nan nan nan nan nan nan nan nan nan nan nan nan nan nan nan nan nan nan nan
nan nan nan nan nan nan nan nan nan nan nan nan nan 14 nan 9 17 nan 29 37 43 43 41 nan nan nan nan nan nan nan nan nan nan nan nan nan nan nan nan nan nan nan nan nan
nan nan nan nan nan nan nan nan nan nan nan nan nan 15 nan nan 15 20 30 39 42 40 nan nan nan nan nan nan nan nan nan nan nan nan nan nan nan nan nan nan nan nan nan nan
nan nan nan nan nan nan nan nan nan nan nan 7 nan nan nan nan nan nan 33 39 38 nan nan nan nan nan nan nan nan nan nan nan nan nan nan nan nan nan nan nan nan nan nan nan
nan nan nan nan nan nan nan nan nan nan nan nan nan nan nan nan nan nan nan nan nan nan nan nan nan nan nan nan nan nan nan nan nan nan nan nan nan nan nan nan nan nan nan nan
nan nan nan nan nan nan nan nan nan nan nan nan nan nan nan nan nan nan nan nan nan nan nan nan nan nan nan nan nan nan nan nan nan nan nan nan nan nan nan nan nan nan nan nan
nan nan nan nan nan nan nan nan nan nan nan nan nan nan nan nan nan nan nan nan nan nan nan nan nan nan nan nan nan nan nan nan nan nan nan nan 17 nan nan nan nan nan nan nan
nan nan nan nan nan nan nan nan nan nan nan nan nan nan nan nan nan nan nan nan nan nan nan nan nan nan nan nan nan nan nan nan nan nan nan nan nan nan nan nan nan nan nan nan
21 22 17 nan nan nan nan nan nan nan nan nan nan nan nan nan nan nan nan nan nan nan nan nan nan nan nan nan nan nan nan nan nan nan nan nan nan nan nan nan nan nan nan nan
nan 22 nan nan nan nan nan nan nan nan nan nan nan nan nan nan nan nan nan nan nan nan nan nan nan nan nan nan nan nan nan nan nan nan 12 nan nan nan nan nan nan 17 nan nan
nan 12 12 nan nan nan nan nan nan nan nan nan nan nan nan nan nan nan nan nan nan nan nan nan nan nan nan nan nan nan nan nan nan nan nan nan nan nan nan nan nan nan nan nan
nan 8 6 nan nan nan nan nan nan nan nan nan nan nan nan nan nan nan nan nan nan nan nan nan nan nan nan nan nan nan nan nan nan nan nan nan nan nan nan nan nan nan nan nan
nan nan nan nan nan nan nan nan nan nan nan nan nan nan nan nan nan nan nan nan nan nan nan nan nan nan nan nan nan nan nan nan nan nan nan nan 11 nan nan nan nan nan nan nan
nan nan nan nan nan nan nan nan nan nan nan nan nan nan nan nan nan nan nan nan nan nan nan nan nan nan nan nan nan nan nan nan nan nan 9 nan nan nan nan nan nan nan nan nan
nan nan nan nan nan nan nan nan nan nan nan nan nan nan nan nan nan nan nan nan nan nan nan nan nan nan nan nan nan nan nan nan nan 8 10 nan nan nan nan nan nan nan nan nan
nan nan nan nan nan nan nan nan nan nan nan nan nan nan nan nan nan nan nan nan nan nan nan nan nan nan nan nan nan nan nan nan nan 4 10 nan nan nan 13 nan nan nan nan nan
nan nan nan nan nan nan nan nan nan nan nan nan nan nan nan nan nan nan nan nan nan nan nan nan nan nan nan nan nan nan nan nan nan nan nan nan nan 15 nan nan nan nan nan nan
Wind_Direction
nan nan nan 348 nan nan nan 318 326 327 326 331 332 nan nan nan nan nan nan nan nan nan nan nan nan nan nan nan nan nan nan nan nan nan nan nan nan nan nan nan nan nan nan nan
nan nan nan nan nan nan 317 318 313 nan nan 324 nan nan nan nan nan nan nan nan nan nan nan nan nan nan nan nan nan nan nan nan nan nan nan nan nan nan nan nan nan nan nan nan
nan nan nan nan 300 305 314 310 323 320 nan nan nan 327 333 331 326 nan nan nan nan nan 323 nan nan nan nan nan nan nan nan nan nan nan nan nan nan nan nan nan nan nan nan nan
nan nan nan 311 nan nan nan nan nan nan nan 325 nan 323 331 330 333 338 323 324 329 328 nan nan nan nan nan nan nan nan nan nan nan nan nan nan nan nan nan nan nan nan nan nan
nan nan nan nan nan nan nan nan nan nan nan 320 331 328 324 330 338 338 320 316 314 318 nan nan nan nan nan nan nan nan nan nan nan nan nan nan nan nan nan nan nan nan nan nan
nan nan nan nan nan nan nan nan nan nan nan 322 316 321 322 325 318 305 309 316 317 nan nan nan nan nan nan nan nan nan nan nan nan nan nan nan nan nan nan nan nan nan nan nan
nan nan nan nan nan nan nan 319 314 318 nan nan nan nan 301 nan 302 308 320 321 319 nan nan nan nan nan nan nan nan nan nan nan nan nan nan nan nan nan nan nan nan nan 352 358
nan nan nan nan nan nan nan nan nan nan nan nan nan 321 299 290 301 308 315 317 nan nan nan nan nan nan nan nan nan nan nan nan nan nan nan nan nan nan nan nan nan nan 10 23
nan nan nan nan nan nan nan nan nan nan nan 318 308 305 312 305 305 320 nan nan nan nan nan nan nan nan nan nan nan nan nan nan nan nan nan nan nan nan nan nan nan nan nan nan
nan nan nan nan nan nan nan nan nan nan nan nan 309 288 301 330 336 334 336 nan nan nan 327 nan nan nan nan nan nan nan nan nan nan nan nan nan nan nan nan nan nan nan nan nan
nan nan nan nan nan nan nan nan nan nan nan nan nan 299 nan 331 329 nan 337 332 329 330 328 nan nan nan nan nan nan nan nan nan nan nan nan nan nan nan nan nan nan nan nan nan
nan nan nan nan nan nan nan nan nan nan nan nan nan 315 nan nan 324 331 328 329 331 330 nan nan nan nan nan nan nan nan nan nan nan nan nan nan nan nan nan nan nan nan nan nan
nan nan nan nan nan nan nan nan nan nan nan 290 nan nan nan nan nan nan 330 331 331 nan nan nan nan nan nan nan nan nan nan nan nan nan nan nan nan nan nan nan nan nan nan nan
nan nan nan nan nan nan nan nan nan nan nan nan nan nan nan nan nan nan nan nan nan nan nan nan nan nan nan nan nan nan nan nan nan nan nan nan nan nan nan nan nan nan nan nan
nan nan nan nan nan nan nan nan nan nan nan nan nan nan nan nan nan nan nan nan nan nan nan nan nan nan nan nan nan nan nan nan nan nan nan nan nan nan nan nan nan nan nan nan
nan nan nan nan nan nan nan nan nan nan nan nan nan nan nan nan nan nan nan nan nan nan nan nan nan nan nan nan nan nan nan nan nan nan nan nan 104 nan nan nan nan nan nan nan
nan nan nan nan nan nan nan nan nan nan nan nan nan nan nan nan nan nan nan nan nan nan nan nan nan nan nan nan nan nan nan nan nan nan nan nan nan nan nan nan nan nan nan nan
331 321 309 nan nan nan nan nan nan nan nan nan nan nan nan nan nan nan nan nan nan nan nan nan nan nan nan nan nan nan nan nan nan nan nan nan nan nan nan nan nan nan nan nan
nan 339 nan nan nan nan nan nan nan nan nan nan nan nan nan nan nan nan nan nan nan nan nan nan nan nan nan nan nan nan nan nan nan nan 130 nan nan nan nan nan nan 92 nan nan
nan 332 13 nan nan nan nan nan nan nan nan nan nan nan nan nan nan nan nan nan nan nan nan nan nan nan nan nan nan nan nan nan nan nan nan nan nan nan nan nan nan nan nan nan
nan 36 353 nan nan nan nan nan nan nan nan nan nan nan nan nan nan nan nan nan nan nan nan nan nan nan nan nan nan nan nan nan nan nan nan nan nan nan nan nan nan nan nan nan
nan nan nan nan nan nan nan nan nan nan nan nan nan nan nan nan nan nan nan nan nan nan nan nan nan nan nan nan nan nan nan nan nan nan nan nan 138 nan nan nan nan nan nan nan
nan nan nan nan nan nan nan nan nan nan nan nan nan nan nan nan nan nan nan nan nan nan nan nan nan nan nan nan nan nan nan nan nan nan 170 nan nan nan nan nan nan nan nan nan
nan nan nan nan nan nan nan nan nan nan nan nan nan nan nan nan nan nan nan nan nan nan nan nan nan nan nan nan nan nan nan nan nan 174 175 nan nan nan nan nan nan nan nan nan
nan nan nan nan nan nan nan nan nan nan nan nan nan nan nan nan nan nan nan nan nan nan nan nan nan nan nan nan nan nan nan nan nan 227 196 nan nan nan 178 nan nan nan nan nan
nan nan nan nan nan nan nan nan nan nan nan nan nan nan nan nan nan nan nan nan nan nan nan nan nan nan nan nan nan nan nan nan nan nan nan nan nan 202 nan nan nan nan nan nan